STARLINK-3042 (49142 NORAD) Tracking and Keplerian Element Data

This shows tracking and keplerian element data for the satellite.

Feedback or suggestion? Click here.




ElementValue
Catalog49142
NameSTARLINK-3042
Epoch Orbit367
Epoch Day300.58334491
Epoch Year2021
RAAN4.7227
Inclination70.0016
Eccentricity0.0003992
Argument of Perigee296.429
Mean Anonmoly63.738
Mean Motion15.69773503
Decay Rate-0.00049975
L11 49142U 21082N 21300.58334491 -.00049975 00000-0 -41886-3 0 9992
L22 49142 70.0016 4.7227 0003992 296.4290 63.7380 15.69773503 3672

Live tracking and technical data element details for STARLINK-3042 (NORAD 49142). STARLINK-3042 can be tracked NOW for your location showing map with azimuth and elevation plus other details from your city location.

Track the satellite on the map from your city or location and see movement details for azimuth, elevation, latitude, longitude, range, height, and movement on the map or in text.







IsCatalogInMostPopularTable: catalog: 49142, numindb: 5
Update: records affected: 1



GetName: 49142 STARLINK-3042

Hit Count: updated at: Thu, 28 Oct 2021 11:46:45 GMT